LiveATC.Net - Listen to live air traffic control over the Internet!


ICAO: PABE  IATA: BET   Airport: Bethel Airport
City: Bethel   State/Province: Alaska
Country: United States   Continent: North America
PABE METAR Weather: PABE 161353Z 32008KT 10SM CLR 11/09 A3016 RMK AO2 SLP214 T01110094 $
PABE ADS-B Flight Tracking  (ADSBExchange)
PABE Flight Activity (FlightAware)
PABE Webcam:  (Airport Webcams) 
PABE Airport Info   (iFlightPlanner)
PABE VFR Sectional Chart   (iFlightPlanner) 
PABE IFR Low Altitude Chart   (iFlightPlanner) 
PABE IFR High Altitude Chart   (iFlightPlanner) 

ZAN Anchorage Center (Bethel)
Feed Status: UP   Listeners: 5
Listen in your browser - HTML5 player (in browser, HTML5)
Click here to listen with your own player (launches your MP3 player)
Archive Access: ZAN Anchorage Center (Bethel)
FacilityFrequency
Anchorage Center (High)127.500
Anchorage Center (Low)125.200

ICAO: PADQ  IATA: ADQ   Airport: Kodiak Airport
City: Kodiak   State/Province: Alaska
Country: United States   Continent: North America
PADQ METAR Weather: PADQ 161353Z AUTO 26004KT 10SM CLR 07/05 A3013 RMK AO2 SLP204 T00670050 TSNO
PADQ ADS-B Flight Tracking  (ADSBExchange)
PADQ Flight Activity (FlightAware)
PADQ Webcam:  (Airport Webcams) 
PADQ Airport Info   (iFlightPlanner)
PADQ VFR Sectional Chart   (iFlightPlanner) 
PADQ IFR Low Altitude Chart   (iFlightPlanner) 
PADQ IFR High Altitude Chart   (iFlightPlanner) 

PADQ Gnd/Twr/ZAN
Feed Status: UP   Listeners: 4
Listen in your browser - HTML5 player (in browser, HTML5)
Click here to listen with your own player (launches your MP3 player)
Archive Access: PADQ Gnd/Twr/ZAN
FacilityFrequency
Anchorage Center (Kodiak RCAG, Low Sector)125.100
Kodiak Ground121.900
Kodiak Tower119.800
NOTE: Anchorage Center simulcasts on all transmitters across Alaska - so most of the time you are not likely to hear aircraft on those frequencies, unless they are inbound to or outbound to Kodiak.

ICAO: PAFA  IATA: FAI   Airport: Fairbanks International Airport
City: Fairbanks   State/Province: Alaska
Country: United States   Continent: North America
PAFA METAR Weather: PAFA 161353Z 04004KT 10SM FEW070 FEW200 13/09 A3010 RMK AO2 SLP194 T01330094 $
PAFA ADS-B Flight Tracking  (ADSBExchange)
PAFA Flight Activity (FlightAware)
PAFA Webcam:  (Airport Webcams) 
PAFA Airport Info   (iFlightPlanner)
PAFA VFR Sectional Chart   (iFlightPlanner) 
PAFA IFR Low Altitude Chart   (iFlightPlanner) 
PAFA IFR High Altitude Chart   (iFlightPlanner) 

Anchorage Center (PAFA Area)
Feed Status: UP   Listeners: 4
Listen in your browser - HTML5 player (in browser, HTML5)
Click here to listen with your own player (launches your MP3 player)
Archive Access: Anchorage Center (PAFA Area)
FacilityFrequency
Anchorage Center120.900
Anchorage Center135.300
Anchorage Center135.600

ICAO: PAHO  IATA: HOM   Airport: Homer Airport
City: Homer   State/Province: Alaska
Country: United States   Continent: North America
PAHO METAR Weather: PAHO 161353Z AUTO 00000KT 10SM CLR 09/07 A3012 RMK AO2 SLP200 T00940067 TSNO
PAHO ADS-B Flight Tracking  (ADSBExchange)
PAHO Flight Activity (FlightAware)
PAHO Webcam:  
PAHO Airport Info   (iFlightPlanner)
PAHO VFR Sectional Chart   (iFlightPlanner) 
PAHO IFR Low Altitude Chart   (iFlightPlanner) 
PAHO IFR High Altitude Chart   (iFlightPlanner) 

ZAN Anchorage Ctr (Homer/High)
Feed Status: UP   Listeners: 6
Listen in your browser - HTML5 player (in browser, HTML5)
Click here to listen with your own player (launches your MP3 player)
Archive Access: ZAN Anchorage Ctr (Homer/High)
FacilityFrequency
Anchorage Center (Homer, High)133.800
Anchorage Center (Sector 63/69)125.950
Anchorage Center (Sector 63/69)127.500
Anchorage Center (Sector 63/69)127.600
Anchorage Center (Sector 63/69)133.050
Anchorage Center (Sector 63/69)133.800
Anchorage Center (Sector 63/69)134.550
Anchorage Center (Sector 68)120.550
Anchorage Center (Sector 68)124.050
Anchorage Center (Sector 68)127.300
Feed sponsored by:
Angle of Attack and LiveATC.net


ZAN Anchorage Ctr (Homer/Low)
Feed Status: UP   Listeners: 4
Listen in your browser - HTML5 player (in browser, HTML5)
Click here to listen with your own player (launches your MP3 player)
Archive Access: ZAN Anchorage Ctr (Homer/Low)
FacilityFrequency
Anchorage Center (Homer, Low)125.900
Feed sponsored by:
Angle of Attack and LiveATC.net


ICAO: PANC  IATA: ANC   Airport: Ted Stevens Anchorage International Airport
City: Anchorage   State/Province: Alaska
Country: United States   Continent: North America
PANC METAR Weather: PANC 161353Z 16004KT 10SM FEW110 13/09 A3011 RMK AO2 SLP196 T01280094
PANC ADS-B Flight Tracking  (ADSBExchange)
PANC Flight Activity (FlightAware)
PANC Webcam:  (Airport Webcams) 
PANC Airport Info   (iFlightPlanner)
PANC VFR Sectional Chart   (iFlightPlanner) 
PANC IFR Low Altitude Chart   (iFlightPlanner) 
PANC IFR High Altitude Chart   (iFlightPlanner) 

ZAN Anchorage Center (Misc)
Feed Status: UP   Listeners: 5
Listen in your browser - HTML5 player (in browser, HTML5)
Click here to listen with your own player (launches your MP3 player)
Archive Access: ZAN Anchorage Center (Misc)
FacilityFrequency
Anchorage Center (Anchorage High/Low)132.300
Anchorage Center (Big Lake RCAG High/Low)133.700
Anchorage Center (Johnstone Point RCAG High/Low)119.300
Anchorage Center (Kenai RCAG High/Low)119.700
Anchorage Center (Kenai RCAG High/Low)123.900
Anchorage Center (Kenai RCAG High/Low)125.700
Anchorage Center (Middleton Island RCAG Low)133.600
Anchorage Center (Sparrevohn RCAG High)134.300
Anchorage Center (Talkeetna RCAG High/Low)125.550

ICAO: PASC  IATA: SCC   Airport: Deadhorse Airport
City: Deadhorse   State/Province: Alaska
Country: United States   Continent: North America
PASC METAR Weather: PASC 161353Z 12003KT 10SM FEW007 SCT110 BKN250 07/03 A3016 RMK AO2 SLP214 T00670028 $
PASC ADS-B Flight Tracking  (ADSBExchange)
PASC Flight Activity (FlightAware)
PASC Webcam:  (Airport Webcams) 
PASC Airport Info   (iFlightPlanner)
PASC VFR Sectional Chart   (iFlightPlanner) 
PASC IFR Low Altitude Chart   (iFlightPlanner) 
PASC IFR High Altitude Chart   (iFlightPlanner) 

PASC CTAF/Unicom/AFIS/App
Feed Status: UP   Listeners: 2
Listen in your browser - HTML5 player (in browser, HTML5)
Click here to listen with your own player (launches your MP3 player)
Archive Access: PASC CTAF/Unicom/AFIS/App
FacilityFrequency
Deadhorse AFIS118.400
Deadhorse CTAF123.600
Deadhorse UNICOM123.000

NOTICE

Unauthorized use prohibited. See LiveATC.net Terms of Service


Airport/ARTCC Code
Frequency Search
(e.g., 124.400, 128.75)
Site-wide search
 


Browse Feeds
Top 50 Feeds
HF Oceanic Feeds
Coverage Map
Bad Weather Areas

LiveATC FAQ

Increase Coverage

Contact LiveATC.net
Press Inquiries

LiveATC on iPhone
LiveATC on Android

LiveATC Mobile
(Mobile browser)

ATC Audio Archives
Interesting Recordings

LiveATC Forums


Home Page
About LiveATC.net


Terms of Use
Privacy Policy

AIRMETs/SIGMETs

FAA Airport Status
NAS Status
Arrival Demand


Server Software By:
Icecast.org
Liquidsoap